Weather History for KSUA - February, 2013

Change the Weather History Date:

Friday, February 15, 2013

  Actual Average (KVRB) Record (KVRB)
Temperature  
Mean Temperature 65 °F 64 °F  
Max Temperature 68 °F 75 °F 88 °F (1997)
Min Temperature 62 °F 54 °F 30 °F (1943)
Degree Days  
Heating Degree Days 0 3  
Month to date heating degree days 59  
Since 1 July heating degree days 346  
Cooling Degree Days 0 3  
Month to date cooling degree days 37  
Year to date cooling degree days 98  
Growing Degree Days 15 (Base 50)    
Moisture  
Dew Point 62 °F    
Average Humidity 91    
Maximum Humidity 100    
Minimum Humidity 83    
Precipitation  
Precipitation 0.02 in 0.10 in 1.07 in (1997)
Month to date precipitation 1.40  
Year to date precipitation 3.90  
Sea Level Pressure  
Sea Level Pressure 30.00 in    
Wind  
Wind Speed 6 mph (North)    
Max Wind Speed 12 mph    
Max Gust Speed -    
Visibility 9 miles    
Events Rain    
T = Trace of Precipitation, MM = Missing Value Source: NWS Daily Summary

Daily Weather History Graph

Daily Weather History Graph

Search for Another Location

Airport or City:

Trip Planner

Search our weather history database for the weather conditions in past years. The results will help you decide how hot, cold, wet, or windy it might be!

Date:

Astronomy

Feb. 15, 2013 Rise Set
Actual Time 6:57 AM EST 6:13 PM EST
Civil Twilight 6:33 AM EST 6:36 PM EST
Nautical Twilight 6:06 AM EST 7:04 PM EST
Astronomical Twilight 5:39 AM EST 7:31 PM EST
Moon 10:07 AM EST (2/15) 11:34 PM EST (2/15)
Length of Visible Light 12h 03m
Length of Day
11h 15m
Waxing Crescent, 30% of the Moon is Illuminated
Feb 15
Waxing Crescent
Feb 17
First Quarter
Feb 25
Full
Mar 4
Last Quarter
Mar 11
New

Hourly Weather History & Observations

Time (EST) Temp. Dew Point Humidity Pressure Visibility Wind Dir Wind Speed Gust Speed Precip Events Conditions
12:15 AM 64.4 °F 60.8 °F 88% 30.02 in 10.0 mi NNE 11.5 mph - N/A   Overcast
12:35 AM 66.2 °F 60.8 °F 83% 30.02 in 10.0 mi NE 8.1 mph - N/A   Mostly Cloudy
12:55 AM 66.2 °F 60.8 °F 83% 30.02 in 10.0 mi NE 10.4 mph - N/A   Overcast
1:15 AM 66.2 °F 60.8 °F 83% 30.00 in 10.0 mi NE 11.5 mph - N/A   Overcast
1:35 AM 66.2 °F 60.8 °F 83% 29.99 in 10.0 mi NE 10.4 mph - N/A   Overcast
1:55 AM 66.2 °F 60.8 °F 83% 29.98 in 10.0 mi East 9.2 mph - N/A   Overcast
2:15 AM 68.0 °F 62.6 °F 83% 29.98 in 10.0 mi ENE 10.4 mph - N/A   Overcast
2:35 AM 68.0 °F 62.6 °F 83% 29.98 in 10.0 mi East 6.9 mph - N/A   Overcast
2:55 AM 68.0 °F 62.6 °F 83% 30.00 in 10.0 mi Calm Calm - N/A Rain Light Rain
3:15 AM 68.0 °F 62.6 °F 83% 29.99 in 7.0 mi ESE 4.6 mph - N/A   Drizzle
3:35 AM 66.2 °F 62.6 °F 88% 29.99 in 10.0 mi Calm Calm - N/A   Light Drizzle
3:55 AM 66.2 °F 62.6 °F 88% 29.99 in 7.0 mi NW 3.5 mph - N/A Rain Light Rain
4:15 AM 66.2 °F 64.4 °F 94% 29.99 in 10.0 mi SE 3.5 mph - N/A   Overcast
4:35 AM 66.2 °F 64.4 °F 94% 29.98 in 10.0 mi ESE 6.9 mph - 0.01 in Rain Light Rain
4:55 AM 66.2 °F 62.6 °F 88% 29.99 in 10.0 mi SSE 3.5 mph - 0.01 in Rain Light Rain
5:15 AM 66.2 °F 62.6 °F 88% 29.99 in 10.0 mi Calm Calm - 0.01 in Rain Light Rain
9:10 AM 64.4 °F 64.4 °F 100% 30.05 in 7.0 mi WNW 6.9 mph - N/A   Overcast
9:47 AM 64.4 °F 64.4 °F 100% 30.05 in 7.0 mi Calm Calm - N/A   Overcast
10:47 AM 64.4 °F 62.6 °F 94% 30.06 in 7.0 mi NW 6.9 mph - N/A   Overcast
11:47 AM 64.4 °F 62.6 °F 94% 30.06 in 7.0 mi NNW 5.8 mph - N/A   Overcast
12:47 PM 64.4 °F 62.6 °F 94% 30.05 in 7.0 mi Calm Calm - N/A   Overcast
1:40 PM 66.2 °F 62.6 °F 88% 30.02 in 4.0 mi NNW 5.8 mph - N/A   Light Drizzle
2:30 PM 64.4 °F 62.6 °F 94% 30.00 in 6.0 mi NW 4.6 mph - N/A   Overcast
2:50 PM 64.4 °F 62.6 °F 94% 29.99 in 6.0 mi NNW 4.6 mph - N/A   Overcast
3:50 PM 64.4 °F 60.8 °F 88% 29.98 in 7.0 mi NNW 5.8 mph - N/A   Mostly Cloudy
4:50 PM 64.4 °F 60.8 °F 88% 30.00 in 7.0 mi North 5.8 mph - N/A   Overcast
5:50 PM 64.4 °F 60.8 °F 88% 29.99 in 7.0 mi Calm Calm - N/A   Overcast
5:55 PM 64.4 °F 60.8 °F 88% 29.99 in 10.0 mi Calm Calm - N/A   Mostly Cloudy
6:47 PM 64.4 °F 60.8 °F 88% 29.99 in 10.0 mi Calm Calm - N/A   Scattered Clouds
7:15 PM 62.6 °F 60.8 °F 94% 29.98 in 10.0 mi Calm Calm - N/A   Clear
7:35 PM 62.6 °F 60.8 °F 94% 29.98 in 10.0 mi Calm Calm - N/A   Clear
7:55 PM 62.6 °F 60.8 °F 94% 29.97 in 10.0 mi Calm Calm - N/A   Clear
8:15 PM 62.6 °F 60.8 °F 94% 29.97 in 10.0 mi NNW 3.5 mph - N/A   Clear
8:35 PM 62.6 °F 60.8 °F 94% 29.97 in 10.0 mi NW 3.5 mph - N/A   Clear
8:55 PM 62.6 °F 60.8 °F 94% 29.99 in 10.0 mi WNW 4.6 mph - N/A   Scattered Clouds
9:15 PM 62.6 °F 60.8 °F 94% 29.99 in 10.0 mi WNW 3.5 mph - N/A   Mostly Cloudy
9:35 PM 62.6 °F 60.8 °F 94% 30.00 in 10.0 mi WNW 3.5 mph - N/A   Overcast
9:55 PM 62.6 °F 60.8 °F 94% 29.99 in 10.0 mi WNW 3.5 mph - N/A   Overcast
10:15 PM 62.6 °F 60.8 °F 94% 30.00 in 10.0 mi Calm Calm - N/A   Overcast
10:35 PM 62.6 °F 60.8 °F 94% 29.99 in 10.0 mi Calm Calm - N/A   Overcast
10:55 PM 62.6 °F 60.8 °F 94% 29.99 in 10.0 mi Calm Calm - N/A   Overcast
11:15 PM 62.6 °F 60.8 °F 94% 29.98 in 7.0 mi Calm Calm - N/A   Overcast
11:35 PM 62.6 °F 60.8 °F 94% 29.97 in 10.0 mi Calm Calm - N/A   Mostly Cloudy
11:55 PM 62.6 °F 60.8 °F 94% 29.97 in 10.0 mi NW 3.5 mph - N/A   Overcast